User: anonymous   Login
Location: Campillo
(40.8621°N, 4.2488°W)
Time: 23:38:46
(UTC+00:00)
Language:

Cosmos 1812 - Orbit

View from above orbital plane
View from above orbital plane
View from above satellite
View from above satellite

Ground track
Ground track

The orbit data is extracted from the following two-line orbital elements,

1 17295U 87003A   21204.52972756  .00000907  00000-0  45508-4 0  9996
2 17295  82.5148 110.1795 0003394  13.1982 346.9339 15.16072592885445
Epoch (UTC): 23 July 2021 12:42:48
Eccentricity: 0.0003394
inclination: 82.5148°
perigee height: 515 km
apogee height: 520 km
right ascension of ascending node: 110.1795°
argument of perigee: 13.1982°
revolutions per day: 15.16072592
mean anomaly at epoch: 346.9339°
orbit number at epoch: 88544

The dashed part of the orbit path shows where the satellite is in the earth's shadow,  

DLR